National Weather Service Raw Text Product

Displaying AFOS PIL: RWRIA Received: 2018-06-14 01:00 UTC


736 
ASUS43 KDMX 140106
RWRIA 

WEATHER ROUNDUP FOR IOWA
NATIONAL WEATHER SERVICE DES MOINES IA
800 PM CDT WED JUN 13 2018

NOTE: "FAIR" INDICATES FEW OR NO CLOUDS BELOW 12,000 FEET WITH NO
SIGNIFICANT WEATHER AND/OR OBSTRUCTIONS TO VISIBILITY.

* - THESE STATIONS ARE NOT NWS STATIONS...THUS NOT UNDER NWS
QUALITY CONTROL.  THEY ALSO DO NOT REPORT WEATHER SUCH 
AS PRECIPITATION OR FOG.  

IAZ001>003-012>014-020>022-031>034-043>046-140200-
   NORTHWEST IOWA
  
CITY           SKY/WX    TMP DP  RH WIND       PRES   REMARKS
CARROLL *      LGT RAIN  66  61  82 E9        30.03S                  
CHEROKEE *     CLOUDY    69  54  58 E6        29.92F                  
DENISON *      PTCLDY    72  55  56 E9        29.98F                  
LE MARS *      CLOUDY   N/A N/A N/A SE7G13    29.91S                  
ORANGE CITY *  CLOUDY    68  54  60 SE5       29.91F                  
SHELDON *      CLOUDY    66  54  63 SE15      29.89F                  
SIOUX CITY     CLOUDY    67  57  70 SE9       29.95R                  
SPENCER        CLOUDY    68  53  58 SE16      29.93F                  
STORM LAKE *   CLOUDY    68  54  60 SE16      29.94F                  
$$
 
IAZ055>058-069>071-079>083-090>094-140200-
   SOUTHWEST IOWA
  
CITY           SKY/WX    TMP DP  RH WIND       PRES   REMARKS
ATLANTIC *     PTCLDY    75  59  57 N8        30.06R                  
AUDUBON *      LGT RAIN  75  57  53 NE5       30.06R                  
CLARINDA *     PTCLDY    75  57  53 VRB5      30.01S                  
COUNCIL BLFS * CLOUDY    75  57  53 E8        29.99F                  
CRESTON *      CLOUDY    72  59  64 S6        30.03R                  
HARLAN  *      PTCLDY    75  55  50 E8        30.04S                  
LAMONI         CLOUDY    75  58  55 CALM      30.01R                  
RED OAK *      PTCLDY    75  57  53 MISG      29.99F                  
SHENANDOAH *   CLOUDY    75  59  57 SE7       29.99S                  
$$
 
IAZ047>049-059>061-072>074-084-140200-
   CENTRAL IOWA
  
CITY           SKY/WX    TMP DP  RH WIND       PRES   REMARKS
AMES           CLOUDY    73  60  63 S3        30.02S                  
ANKENY *       CLOUDY    73  63  68 CALM      30.03S                  
BOONE *        CLOUDY    73  57  56 CALM      30.03R                  
CHARITON *     CLOUDY    73  59  60 E5        30.00F                  
DES MOINES     MOCLDY    77  51  40 CALM      30.01S                  
GRINNELL*      CLOUDY    75  53  45 CALM      30.04S                  
KNOXVILLE *    PTCLDY    75  55  50 CALM      30.01S                  
MARSHALLTOWN   CLOUDY    76  54  46 S5        30.01S                  
NEWTON *       CLOUDY    73  63  68 CALM      30.02S                  
PELLA *        MOCLDY    73  56  54 CALM      30.03S                  
PERRY *        MOCLDY    74  54  49 NW6       30.06R                  
$$
 
IAZ004>006-015-016-023>025-035-036-140200-
   NORTH CENTRAL IOWA
  
CITY           SKY/WX    TMP DP  RH WIND       PRES   REMARKS
ALGONA *       CLOUDY    73  46  38 S9        30.03F                  
CLARION *      CLOUDY    75  46  35 W8        30.05R                  
ESTHERVILLE    LGT RAIN  66  53  63 SE7       29.98F                  
FORT DODGE *   CLOUDY    72  51  47 W9        30.08R                  
MASON CITY     MOCLDY    72  58  61 CALM      30.04S                  
FOREST CITY *  FAIR      68  55  64 CALM      30.03F                  
WEBSTER CITY * MOCLDY    73  54  49 W8        30.04R                  
IOWA FALLS *   FAIR      75  50  40 CALM      30.03F                  
$$

IAZ007>011-017>019-026>030-037>042-050>054-066-140200-
   NORTHEAST IOWA
  
CITY           SKY/WX    TMP DP  RH WIND       PRES   REMARKS
CEDAR RAPIDS   FAIR      76  53  44 N3        30.01F                  
CHARLES CITY * FAIR      73  50  43 CALM      30.03F                  
CLINTON *      FAIR      74  57  55 N3        30.02S                  
DECORAH *      FAIR      70  55  60 CALM      30.02S                  
DUBUQUE        FAIR      69  54  58 NW5       30.03S                  
MONTICELLO *   FAIR      75  59  57 CALM      30.02R                  
OELWEIN *      FAIR      73  50  43 CALM      30.04S                  
WATERLOO       FAIR      72  54  53 NE5       30.01F                  
$$
 
IAZ064-065-067-068-078-140200-
   EAST CENTRAL IOWA
  
CITY           SKY/WX    TMP DP  RH WIND       PRES   REMARKS
DAVENPORT      FAIR      73  56  54 NW5       30.04R                  
IOWA CITY      FAIR      77  51  40 N5        30.02S                  
MT. PLEASANT * CLOUDY    73  55  53 E3        30.02R                  
MUSCATINE *      N/A    N/A N/A N/A MISG        N/A                   
QUAD CITIES    FAIR      77  50  38 CALM      30.01R                  
$$
 
IAZ062-063-075>077-085>089-095>099-140200-
   SOUTHEAST IOWA
  
CITY           SKY/WX    TMP DP  RH WIND       PRES   REMARKS
BURLINGTON     CLEAR     77  48  35 NE5       30.02R                  
FAIRFIELD *    CLOUDY    73  55  53 CALM      30.01F                  
FORT MADISON * CLEAR     73  55  53 CALM      30.03R                  
KEOKUK *       CLEAR     75  59  57 E3        30.01R                  
OSKALOOSA *    FAIR      76  54  45 CALM      30.02F                  
CENTERVILLE *    N/A     73  55  53 CALM      30.03F                  
OTTUMWA        PTCLDY    76  53  44 E6        30.01F                  
WASHINGTON *   PTCLDY    75  55  50 N5        30.02F                  
$$

ABBREVIATIONS USED IN REMARKS
   TC - TEMPERATURES IN CELSIUS
  WCI - WIND CHILL INDEX
   HX - HEAT INDEX
  VSB - VISIBILITY  
$$

  

259 
ASUS43 KDMX 140101
RWRIA 

WEATHER ROUNDUP FOR IOWA
NATIONAL WEATHER SERVICE DES MOINES IA
800 PM CDT WED JUN 13 2018

NOTE: "FAIR" INDICATES FEW OR NO CLOUDS BELOW 12,000 FEET WITH NO
SIGNIFICANT WEATHER AND/OR OBSTRUCTIONS TO VISIBILITY.

* - THESE STATIONS ARE NOT NWS STATIONS...THUS NOT UNDER NWS
QUALITY CONTROL.  THEY ALSO DO NOT REPORT WEATHER SUCH 
AS PRECIPITATION OR FOG.  

IAZ001>003-012>014-020>022-031>034-043>046-140200-
   NORTHWEST IOWA
  
CITY           SKY/WX    TMP DP  RH WIND       PRES   REMARKS
CARROLL *      LGT RAIN  66  61  82 E9        30.03S                  
CHEROKEE *     CLOUDY    69  54  58 E6        29.92F                  
DENISON *      PTCLDY    72  55  56 E9        29.98F                  
LE MARS *      CLOUDY   N/A N/A N/A SE7G13    29.91S                  
ORANGE CITY *  CLOUDY    68  54  60 SE5       29.91F                  
SHELDON *      CLOUDY    66  54  63 SE15      29.89F                  
SIOUX CITY     CLOUDY    67  57  70 SE9       29.95R                  
SPENCER        CLOUDY    68  53  58 SE16      29.93F                  
STORM LAKE *   CLOUDY    68  54  60 SE16      29.94F                  
$$
 
IAZ055>058-069>071-079>083-090>094-140200-
   SOUTHWEST IOWA
  
CITY           SKY/WX    TMP DP  RH WIND       PRES   REMARKS
ATLANTIC *     PTCLDY    75  59  57 N8        30.06R                  
AUDUBON *      LGT RAIN  75  57  53 NE5       30.06R                  
CLARINDA *     PTCLDY    75  57  53 VRB5      30.01S                  
COUNCIL BLFS * CLOUDY    75  57  53 E8        29.99F                  
CRESTON *      CLOUDY    72  59  64 S6        30.03R                  
HARLAN  *      PTCLDY    75  55  50 E8        30.04S                  
LAMONI         CLOUDY    75  58  55 CALM      30.01R                  
RED OAK *      PTCLDY    75  57  53 MISG      29.99F                  
SHENANDOAH *   CLOUDY    75  59  57 SE7       29.99S                  
$$
 
IAZ047>049-059>061-072>074-084-140200-
   CENTRAL IOWA
  
CITY           SKY/WX    TMP DP  RH WIND       PRES   REMARKS
AMES           CLOUDY    73  60  63 S3        30.02S                  
ANKENY *       CLOUDY    73  63  68 CALM      30.03S                  
BOONE *        CLOUDY    73  57  56 CALM      30.03R                  
CHARITON *     CLOUDY    73  59  60 E5        30.00F                  
DES MOINES     MOCLDY    77  51  40 CALM      30.01S                  
GRINNELL*      CLOUDY    75  53  45 CALM      30.04S                  
KNOXVILLE *    PTCLDY    75  55  50 CALM      30.01S                  
MARSHALLTOWN   CLOUDY    76  54  46 S5        30.01S                  
NEWTON *       CLOUDY    73  63  68 CALM      30.02S                  
PELLA *        MOCLDY    73  56  54 CALM      30.03S                  
PERRY *        MOCLDY    74  54  49 NW6       30.06R                  
$$
 
IAZ004>006-015-016-023>025-035-036-140200-
   NORTH CENTRAL IOWA
  
CITY           SKY/WX    TMP DP  RH WIND       PRES   REMARKS
ALGONA *       CLOUDY    73  46  38 S9        30.03F                  
CLARION *      CLOUDY    75  46  35 W8        30.05R                  
ESTHERVILLE    LGT RAIN  66  53  63 SE7       29.98F                  
FORT DODGE *   CLOUDY    72  51  47 W9        30.08R                  
MASON CITY     MOCLDY    72  58  61 CALM      30.04S                  
FOREST CITY *  FAIR      68  55  64 CALM      30.03F                  
WEBSTER CITY * MOCLDY    73  54  49 W8        30.04R                  
IOWA FALLS *   FAIR      75  50  40 CALM      30.03F                  
$$

IAZ007>011-017>019-026>030-037>042-050>054-066-140200-
   NORTHEAST IOWA
  
CITY           SKY/WX    TMP DP  RH WIND       PRES   REMARKS
CEDAR RAPIDS   FAIR      76  53  44 N3        30.01F                  
CHARLES CITY * FAIR      73  50  43 CALM      30.03F                  
CLINTON *      FAIR      74  57  55 N3        30.02S                  
DECORAH *      FAIR      70  55  60 CALM      30.02S                  
DUBUQUE        FAIR      69  54  58 NW5       30.03S                  
MONTICELLO *   FAIR      75  59  57 CALM      30.02R                  
OELWEIN *      FAIR      73  50  43 CALM      30.04S                  
WATERLOO       FAIR      72  54  53 NE5       30.01F                  
$$
 
IAZ064-065-067-068-078-140200-
   EAST CENTRAL IOWA
  
CITY           SKY/WX    TMP DP  RH WIND       PRES   REMARKS
DAVENPORT      FAIR      73  56  54 NW5       30.04R                  
IOWA CITY      FAIR      77  51  40 N5        30.02S                  
MUSCATINE *      N/A    N/A N/A N/A MISG        N/A                   
QUAD CITIES    FAIR      77  50  38 CALM      30.01R                  
$$
 
IAZ062-063-075>077-085>089-095>099-140200-
   SOUTHEAST IOWA
  
CITY           SKY/WX    TMP DP  RH WIND       PRES   REMARKS
BURLINGTON     CLEAR     77  48  35 NE5       30.02R                  
FAIRFIELD *    CLOUDY    73  55  53 CALM      30.01F                  
FORT MADISON * CLEAR     73  55  53 CALM      30.03R                  
KEOKUK *       CLEAR     75  59  57 E3        30.01R                  
OSKALOOSA *    FAIR      76  54  45 CALM      30.02F                  
CENTERVILLE *    N/A     73  55  53 CALM      30.03F                  
OTTUMWA        PTCLDY    76  53  44 E6        30.01F                  
WASHINGTON *   PTCLDY    75  55  50 N5        30.02F                  
$$

ABBREVIATIONS USED IN REMARKS
   TC - TEMPERATURES IN CELSIUS
  WCI - WIND CHILL INDEX
   HX - HEAT INDEX
  VSB - VISIBILITY  
$$